| time (UTC) | temp F | wind direction | speed MPH | gust MPH | rain 1hr in | rain 24hr in | rain mn in | humidity % | barometer mb |
| 20260901052235 | 85 | 145 | 1.0 | 2.0 | 0.00 | 0.00 | 0.00 | 28 | 1015.0 |
| 20260901051733 | 85 | 218 | 0.0 | 2.0 | 0.00 | 0.00 | 0.00 | 29 | 1015.0 |
| 20260901051228 | 85 | 251 | 0.0 | 2.0 | 0.00 | 0.00 | 0.00 | 29 | 1015.0 |
| 20260901050724 | 84 | 174 | 2.0 | 4.0 | 0.00 | 0.00 | 0.00 | 29 | 1014.8 |
| 20260901050219 | 85 | 170 | 0.0 | 3.0 | 0.00 | 0.00 | 0.00 | 29 | 1014.8 |
| 20260901045714 | 86 | 340 | 1.0 | 2.0 | 0.00 | 0.00 | 0.00 | 29 | 1014.8 |
| 20260901045209 | 86 | 147 | 2.0 | 3.0 | 0.00 | 0.00 | 0.00 | 28 | 1014.6 |
| 20260901044704 | 86 | 198 | 1.0 | 3.0 | 0.00 | 0.00 | 0.00 | 30 | 1014.6 |
| 20260901044201 | 86 | 126 | 1.0 | 3.0 | 0.00 | 0.00 | 0.00 | 30 | 1014.6 |
| 20260901043656 | 86 | 113 | 0.0 | 4.0 | 0.00 | 0.00 | 0.00 | 30 | 1014.6 |
| 20260901043151 | 86 | 141 | 1.0 | 2.0 | 0.00 | 0.00 | 0.00 | 30 | 1014.6 |
| 20260901042650 | 86 | 70 | 0.0 | 2.0 | 0.00 | 0.00 | 0.00 | 30 | 1014.4 |
| 20260901042146 | 87 | 22 | 0.0 | 1.0 | 0.00 | 0.00 | 0.00 | 29 | 1014.6 |
| 20260901041642 | 88 | 167 | 2.0 | 3.0 | 0.00 | 0.00 | 0.00 | 28 | 1014.4 |
| 20260901041136 | 89 | 157 | 2.0 | 2.0 | 0.00 | 0.00 | 0.00 | 27 | 1014.4 |
| 20260901040635 | 90 | 214 | 2.0 | 5.0 | 0.00 | 0.00 | 0.00 | 25 | 1014.4 |
| 20260901040129 | 91 | 260 | 1.0 | 5.0 | 0.00 | 0.00 | 0.00 | 25 | 1014.3 |
| 20260901035628 | 91 | 93 | 1.0 | 5.0 | 0.00 | 0.00 | 0.00 | 25 | 1014.2 |
| 20260901035126 | 90 | 260 | 4.0 | 5.0 | 0.00 | 0.00 | 0.00 | 26 | 1014.0 |
| 20260901034621 | 91 | 279 | 4.0 | 12.0 | 0.00 | 0.00 | 0.00 | 25 | 1014.0 |
| 20260901034115 | 90 | 277 | 3.0 | 12.0 | 0.00 | 0.00 | 0.00 | 26 | 1013.9 |
| 20260901033614 | 91 | 262 | 6.0 | 11.0 | 0.00 | 0.00 | 0.00 | 26 | 1014.0 |
| 20260901033109 | 90 | 261 | 4.0 | 10.0 | 0.00 | 0.00 | 0.00 | 27 | 1013.7 |
| 20260901032607 | 91 | 314 | 6.0 | 9.0 | 0.00 | 0.00 | 0.00 | 26 | 1013.7 |
| 20260901032103 | 91 | 319 | 4.0 | 9.0 | 0.00 | 0.00 | 0.00 | 27 | 1013.6 |
| 20260901031558 | 91 | 339 | 3.0 | 3.0 | 0.00 | 0.00 | 0.00 | 27 | 1013.6 |
| 20260901031054 | 91 | 238 | 4.0 | 9.0 | 0.00 | 0.00 | 0.00 | 26 | 1013.6 |
| 20260901030553 | 91 | 281 | 5.0 | 9.0 | 0.00 | 0.00 | 0.00 | 26 | 1013.3 |
| 20260901030048 | 91 | 267 | 4.0 | 7.0 | 0.00 | 0.00 | 0.00 | 26 | 1013.5 |
| 20260901025542 | 92 | 253 | 6.0 | 7.0 | 0.00 | 0.00 | 0.00 | 26 | 1013.5 |
| 20260901025037 | 91 | 272 | 5.0 | 9.0 | 0.00 | 0.00 | 0.00 | 27 | 1013.2 |
| 20260901024532 | 91 | 257 | 11.0 | 17.0 | 0.00 | 0.00 | 0.00 | 27 | 1013.2 |
| 20260901024030 | 92 | 295 | 7.0 | 12.0 | 0.00 | 0.00 | 0.00 | 27 | 1012.9 |
| 20260901023524 | 91 | 263 | 6.0 | 15.0 | 0.00 | 0.00 | 0.00 | 28 | 1013.0 |
| 20260901023020 | 91 | 275 | 6.0 | 13.0 | 0.00 | 0.00 | 0.00 | 28 | 1012.7 |
| 20260901022515 | 92 | 253 | 8.0 | 17.0 | 0.00 | 0.00 | 0.00 | 28 | 1012.9 |
| 20260901022010 | 92 | 304 | 9.0 | 18.0 | 0.00 | 0.00 | 0.00 | 28 | 1012.7 |
| 20260901021505 | 92 | 297 | 13.0 | 14.0 | 0.00 | 0.00 | 0.00 | 29 | 1012.6 |
| 20260901021000 | 92 | 304 | 7.0 | 16.0 | 0.00 | 0.00 | 0.00 | 29 | 1012.5 |
| 20260901020450 | 92 | 323 | 17.0 | 20.0 | 0.00 | 0.00 | 0.00 | 28 | 1012.4 |
| 20260901015949 | 92 | 332 | 11.0 | 18.0 | 0.00 | 0.00 | 0.00 | 29 | 1012.3 |
| 20260901015446 | 93 | 329 | 7.0 | 17.0 | 0.00 | 0.00 | 0.00 | 28 | 1012.2 |
| 20260901014945 | 93 | 297 | 22.0 | 23.0 | 0.00 | 0.00 | 0.00 | 28 | 1012.1 |
| 20260901014441 | 93 | 305 | 17.0 | 21.0 | 0.00 | 0.00 | 0.00 | 28 | 1012.1 |
| 20260901013937 | 93 | 295 | 13.0 | 20.0 | 0.00 | 0.00 | 0.00 | 28 | 1012.2 |
| 20260901013432 | 93 | 262 | 11.0 | 17.0 | 0.00 | 0.00 | 0.00 | 28 | 1012.0 |
| 20260901012927 | 94 | 295 | 10.0 | 19.0 | 0.00 | 0.00 | 0.00 | 28 | 1011.7 |
| 20260901012422 | 94 | 308 | 10.0 | 18.0 | 0.00 | 0.00 | 0.00 | 28 | 1011.7 |
| 20260901011918 | 94 | 294 | 7.0 | 19.0 | 0.00 | 0.00 | 0.00 | 27 | 1011.6 |
| 20260901011414 | 95 | 276 | 11.0 | 18.0 | 0.00 | 0.00 | 0.00 | 27 | 1011.6 |
| 20260901010912 | 95 | 336 | 9.0 | 15.0 | 0.00 | 0.00 | 0.00 | 27 | 1011.6 |
| 20260901010407 | 96 | 293 | 11.0 | 19.0 | 0.00 | 0.00 | 0.00 | 26 | 1012.0 |
| 20260901005906 | 97 | 255 | 5.0 | 18.0 | 0.00 | 0.00 | 0.00 | 25 | 1011.7 |
| 20260901005401 | 97 | 257 | 13.0 | 18.0 | 0.00 | 0.00 | 0.00 | 25 | 1011.7 |
| 20260901004856 | 98 | 263 | 10.0 | 21.0 | 0.00 | 0.00 | 0.00 | 25 | 1011.7 |
| 20260901004355 | 98 | 264 | 9.0 | 26.0 | 0.00 | 0.00 | 0.00 | 25 | 1011.8 |
| 20260901003850 | 98 | 262 | 6.0 | 17.0 | 0.00 | 0.00 | 0.00 | 24 | 1012.0 |
| 20260901003345 | 99 | 274 | 10.0 | 17.0 | 0.00 | 0.00 | 0.00 | 25 | 1012.0 |
| 20260901002844 | 99 | 287 | 7.0 | 20.0 | 0.00 | 0.00 | 0.00 | 25 | 1011.8 |
| 20260901002343 | 100 | 251 | 9.0 | 16.0 | 0.00 | 0.00 | 0.00 | 23 | 1012.1 |
| 20260901001838 | 102 | 256 | 9.0 | 17.0 | 0.00 | 0.00 | 0.00 | 23 | 1012.0 |
| 20260901001333 | 100 | 230 | 10.0 | 14.0 | 0.00 | 0.00 | 0.00 | 21 | 1012.0 |
| 20260901000829 | 102 | 255 | 11.0 | 16.0 | 0.00 | 0.00 | 0.00 | 20 | 1012.1 |
| 20260901000324 | 102 | 268 | 6.0 | 13.0 | 0.00 | 0.00 | 0.00 | 20 | 1012.1 |
| 20260831235822 | 102 | 248 | 12.0 | 13.0 | 0.00 | 0.00 | 0.00 | 20 | 1012.1 |
| 20260831235319 | 102 | 260 | 7.0 | 17.0 | 0.00 | 0.00 | 0.00 | 22 | 1012.2 |
| 20260831234813 | 102 | 256 | 13.0 | 18.0 | 0.00 | 0.00 | 0.00 | 22 | 1012.2 |
| 20260831234313 | 102 | 232 | 10.0 | 21.0 | 0.00 | 0.00 | 0.00 | 22 | 1012.1 |
| 20260831233808 | 101 | 256 | 12.0 | 20.0 | 0.00 | 0.00 | 0.00 | 23 | 1012.2 |
| 20260831233303 | 102 | 243 | 15.0 | 18.0 | 0.00 | 0.00 | 0.00 | 22 | 1012.0 |
| 20260831232753 | 101 | 227 | 13.0 | 19.0 | 0.00 | 0.00 | 0.00 | 22 | 1012.2 |
| 20260831232250 | 102 | 241 | 16.0 | 23.0 | 0.00 | 0.00 | 0.00 | 22 | 1012.2 |
| 20260831231745 | 102 | 258 | 11.0 | 24.0 | 0.00 | 0.00 | 0.00 | 23 | 1012.2 |
| 20260831231241 | 102 | 240 | 16.0 | 22.0 | 0.00 | 0.00 | 0.00 | 21 | 1012.1 |
| 20260831230736 | 102 | 248 | 18.0 | 22.0 | 0.00 | 0.00 | 0.00 | 23 | 1012.2 |
| 20260831230231 | 102 | 247 | 15.0 | 20.0 | 0.00 | 0.00 | 0.00 | 22 | 1012.3 |
| 20260831225730 | 102 | 240 | 9.0 | 21.0 | 0.00 | 0.00 | 0.00 | 22 | 1012.5 |
| 20260831225226 | 102 | 260 | 14.0 | 20.0 | 0.00 | 0.00 | 0.00 | 23 | 1012.4 |
| 20260831224720 | 102 | 241 | 10.0 | 15.0 | 0.00 | 0.00 | 0.00 | 22 | 1012.3 |
| 20260831224216 | 102 | 237 | 7.0 | 20.0 | 0.00 | 0.00 | 0.00 | 23 | 1012.5 |
| 20260831223711 | 103 | 250 | 15.0 | 19.0 | 0.00 | 0.00 | 0.00 | 22 | 1012.3 |
| 20260831223208 | 104 | 255 | 9.0 | 15.0 | 0.00 | 0.00 | 0.00 | 22 | 1012.5 |
| 20260831222703 | 102 | 254 | 13.0 | 17.0 | 0.00 | 0.00 | 0.00 | 23 | 1012.6 |
| 20260831222158 | 102 | 250 | 14.0 | 20.0 | 0.00 | 0.00 | 0.00 | 22 | 1012.6 |
| 20260831221653 | 102 | 260 | 8.0 | 17.0 | 0.00 | 0.00 | 0.00 | 23 | 1012.7 |
| 20260831221149 | 104 | 260 | 11.0 | 17.0 | 0.00 | 0.00 | 0.00 | 22 | 1012.9 |
| 20260831220638 | 103 | 220 | 11.0 | 19.0 | 0.00 | 0.00 | 0.00 | 22 | 1012.9 |
| 20260831220133 | 104 | 257 | 11.0 | 22.0 | 0.00 | 0.00 | 0.00 | 22 | 1012.9 |
| 20260831215629 | 105 | 243 | 8.0 | 11.0 | 0.00 | 0.00 | 0.00 | 22 | 1012.9 |
| 20260831215124 | 105 | 327 | 4.0 | 7.0 | 0.00 | 0.00 | 0.00 | 21 | 1013.0 |
| 20260831214622 | 104 | 325 | 4.0 | 7.0 | 0.00 | 0.00 | 0.00 | 22 | 1013.1 |
| 20260831214118 | 105 | 301 | 6.0 | 12.0 | 0.00 | 0.00 | 0.00 | 22 | 1013.2 |
| 20260831213614 | 103 | 248 | 7.0 | 12.0 | 0.00 | 0.00 | 0.00 | 22 | 1013.3 |
| 20260831213109 | 103 | 245 | 8.0 | 10.0 | 0.00 | 0.00 | 0.00 | 22 | 1013.3 |
| 20260831212605 | 104 | 281 | 6.0 | 15.0 | 0.00 | 0.00 | 0.00 | 22 | 1013.5 |
| 20260831212101 | 104 | 236 | 10.0 | 16.0 | 0.00 | 0.00 | 0.00 | 22 | 1013.6 |
| 20260831211555 | 104 | 215 | 8.0 | 15.0 | 0.00 | 0.00 | 0.00 | 23 | 1013.4 |
| 20260831211054 | 104 | 235 | 5.0 | 13.0 | 0.00 | 0.00 | 0.00 | 22 | 1013.8 |
| 20260831210549 | 103 | 231 | 4.0 | 15.0 | 0.00 | 0.00 | 0.00 | 23 | 1013.7 |
| 20260831210046 | 104 | 220 | 9.0 | 20.0 | 0.00 | 0.00 | 0.00 | 22 | 1013.8 |
| 20260831205545 | 103 | 244 | 6.0 | 15.0 | 0.00 | 0.00 | 0.00 | 22 | 1013.8 |
| 20260831205041 | 104 | 219 | 8.0 | 15.0 | 0.00 | 0.00 | 0.00 | 21 | 1013.8 |
| 20260831204536 | 104 | 199 | 4.0 | 15.0 | 0.00 | 0.00 | 0.00 | 21 | 1014.0 |
| 20260831204034 | 104 | 228 | 9.0 | 15.0 | 0.00 | 0.00 | 0.00 | 21 | 1013.9 |
| 20260831203529 | 102 | 266 | 8.0 | 16.0 | 0.00 | 0.00 | 0.00 | 22 | 1014.0 |
| 20260831203028 | 103 | 240 | 7.0 | 17.0 | 0.00 | 0.00 | 0.00 | 21 | 1013.9 |
| 20260831202522 | 102 | 237 | 11.0 | 15.0 | 0.00 | 0.00 | 0.00 | 22 | 1014.0 |
| 20260831202021 | 103 | 240 | 9.0 | 15.0 | 0.00 | 0.00 | 0.00 | 21 | 1014.1 |
| 20260831201520 | 102 | 234 | 9.0 | 16.0 | 0.00 | 0.00 | 0.00 | 21 | 1014.0 |
| 20260831201016 | 103 | 218 | 15.0 | 18.0 | 0.00 | 0.00 | 0.00 | 21 | 1014.1 |
| 20260831200512 | 103 | 224 | 7.0 | 13.0 | 0.00 | 0.00 | 0.00 | 21 | 1014.3 |
| 20260831200006 | 102 | 229 | 7.0 | 19.0 | 0.00 | 0.00 | 0.00 | 22 | 1014.3 |
| 20260831195501 | 103 | 225 | 6.0 | 15.0 | 0.00 | 0.00 | 0.00 | 22 | 1014.3 |
| 20260831195000 | 102 | 236 | 5.0 | 17.0 | 0.00 | 0.00 | 0.00 | 22 | 1014.3 |
| 20260831194456 | 102 | 236 | 6.0 | 16.0 | 0.00 | 0.00 | 0.00 | 22 | 1014.3 |
| 20260831193951 | 103 | 233 | 4.0 | 14.0 | 0.00 | 0.00 | 0.00 | 21 | 1014.4 |
| 20260831193446 | 103 | 164 | 8.0 | 17.0 | 0.00 | 0.00 | 0.00 | 21 | 1014.4 |
| 20260831192941 | 103 | 229 | 8.0 | 19.0 | 0.00 | 0.00 | 0.00 | 22 | 1014.6 |
| 20260831192436 | 102 | 203 | 6.0 | 12.0 | 0.00 | 0.00 | 0.00 | 22 | 1014.7 |
| 20260831191931 | 103 | 188 | 5.0 | 9.0 | 0.00 | 0.00 | 0.00 | 21 | 1014.5 |
| 20260831191427 | 102 | 184 | 6.0 | 13.0 | 0.00 | 0.00 | 0.00 | 21 | 1014.7 |
| 20260831190923 | 102 | 199 | 6.0 | 10.0 | 0.00 | 0.00 | 0.00 | 21 | 1014.6 |
| 20260831190418 | 102 | 183 | 8.0 | 13.0 | 0.00 | 0.00 | 0.00 | 21 | 1014.8 |
| 20260831185917 | 102 | 226 | 6.0 | 8.0 | 0.00 | 0.00 | 0.00 | 21 | 1014.7 |
| 20260831185413 | 102 | 234 | 4.0 | 12.0 | 0.00 | 0.00 | 0.00 | 21 | 1014.7 |
| 20260831184913 | 102 | 245 | 5.0 | 9.0 | 0.00 | 0.00 | 0.00 | 21 | 1014.8 |
| 20260831184408 | 101 | 228 | 3.0 | 6.0 | 0.00 | 0.00 | 0.00 | 21 | 1015.1 |
| 20260831183903 | 100 | 76 | 2.0 | 8.0 | 0.00 | 0.00 | 0.00 | 21 | 1015.1 |
| 20260831183402 | 100 | 126 | 0.0 | 8.0 | 0.00 | 0.00 | 0.00 | 21 | 1015.0 |
| 20260831182901 | 102 | 21 | 2.0 | 6.0 | 0.00 | 0.00 | 0.00 | 20 | 1015.1 |
| 20260831182357 | 101 | 328 | 5.0 | 5.0 | 0.00 | 0.00 | 0.00 | 21 | 1015.0 |
| 20260831181852 | 100 | 331 | 6.0 | 6.0 | 0.00 | 0.00 | 0.00 | 21 | 1015.2 |
| 20260831181348 | 100 | 75 | 2.0 | 4.0 | 0.00 | 0.00 | 0.00 | 22 | 1015.1 |
| 20260831180842 | 101 | 337 | 1.0 | 3.0 | 0.00 | 0.00 | 0.00 | 21 | 1015.3 |
| 20260831180337 | 99 | 110 | 1.0 | 2.0 | 0.00 | 0.00 | 0.00 | 21 | 1015.3 |
| 20260831175835 | 100 | 68 | 3.0 | 4.0 | 0.00 | 0.00 | 0.00 | 20 | 1015.3 |
| 20260831175332 | 98 | 328 | 2.0 | 4.0 | 0.00 | 0.00 | 0.00 | 21 | 1015.4 |
| 20260831174828 | 100 | 58 | 2.0 | 3.0 | 0.00 | 0.00 | 0.00 | 20 | 1015.4 |
| 20260831174323 | 99 | 349 | 0.0 | 3.0 | 0.00 | 0.00 | 0.00 | 20 | 1015.5 |
| 20260831173822 | 99 | 84 | 4.0 | 4.0 | 0.00 | 0.00 | 0.00 | 19 | 1015.6 |
| 20260831173316 | 98 | 112 | 2.0 | 4.0 | 0.00 | 0.00 | 0.00 | 19 | 1015.4 |
| 20260831172812 | 98 | 98 | 5.0 | 5.0 | 0.00 | 0.00 | 0.00 | 18 | 1015.5 |
| 20260831172307 | 99 | 58 | 1.0 | 3.0 | 0.00 | 0.00 | 0.00 | 18 | 1015.5 |
| 20260831171802 | 96 | 40 | 2.0 | 4.0 | 0.00 | 0.00 | 0.00 | 19 | 1015.4 |
| 20260831171259 | 97 | 63 | 3.0 | 4.0 | 0.00 | 0.00 | 0.00 | 19 | 1015.6 |
| 20260831170755 | 98 | 40 | 2.0 | 3.0 | 0.00 | 0.00 | 0.00 | 19 | 1015.6 |
| 20260831170251 | 98 | 87 | 4.0 | 4.0 | 0.00 | 0.00 | 0.00 | 18 | 1015.5 |
| 20260831165748 | 98 | 226 | 1.0 | 2.0 | 0.00 | 0.00 | 0.00 | 18 | 1015.4 |
| 20260831165244 | 97 | 53 | 3.0 | 3.0 | 0.00 | 0.00 | 0.00 | 17 | 1015.3 |
| 20260831164739 | 95 | 290 | 0.0 | 5.0 | 0.00 | 0.00 | 0.00 | 18 | 1015.6 |
| 20260831164235 | 95 | 280 | 3.0 | 5.0 | 0.00 | 0.00 | 0.00 | 18 | 1015.5 |
| 20260831163730 | 97 | 195 | 3.0 | 3.0 | 0.00 | 0.00 | 0.00 | 17 | 1015.4 |
| 20260831163226 | 97 | 253 | 0.0 | 1.0 | 0.00 | 0.00 | 0.00 | 16 | 1015.3 |
| 20260831162724 | 96 | 65 | 1.0 | 4.0 | 0.00 | 0.00 | 0.00 | 17 | 1015.4 |
| 20260831162224 | 96 | 35 | 0.0 | 2.0 | 0.00 | 0.00 | 0.00 | 17 | 1015.4 |
| 20260831161719 | 96 | 94 | 2.0 | 4.0 | 0.00 | 0.00 | 0.00 | 16 | 1015.3 |
| 20260831161215 | 95 | 91 | 2.0 | 4.0 | 0.00 | 0.00 | 0.00 | 17 | 1015.5 |
| 20260831160714 | 95 | 230 | 0.0 | 2.0 | 0.00 | 0.00 | 0.00 | 17 | 1015.5 |
| 20260831160204 | 95 | 125 | 2.0 | 2.0 | 0.00 | 0.00 | 0.00 | 17 | 1015.4 |
| 20260831155703 | 93 | 300 | 0.0 | 3.0 | 0.00 | 0.00 | 0.00 | 17 | 1015.4 |
| 20260831155159 | 95 | 102 | 0.0 | 3.0 | 0.00 | 0.00 | 0.00 | 16 | 1015.5 |
| 20260831154655 | 95 | 157 | 2.0 | 2.0 | 0.00 | 0.00 | 0.00 | 16 | 1015.3 |
| 20260831154150 | 94 | 281 | 0.0 | 2.0 | 0.00 | 0.00 | 0.00 | 16 | 1015.3 |
| 20260831153649 | 93 | 199 | 0.0 | 2.0 | 0.00 | 0.00 | 0.00 | 17 | 1015.4 |
| 20260831153146 | 94 | 150 | 0.0 | 2.0 | 0.00 | 0.00 | 0.00 | 16 | 1015.4 |
| 20260831152641 | 94 | 68 | 0.0 | 2.0 | 0.00 | 0.00 | 0.00 | 17 | 1015.2 |
| 20260831152137 | 93 | 297 | 0.0 | 3.0 | 0.00 | 0.00 | 0.00 | 17 | 1015.3 |
| 20260831151637 | 93 | 89 | 1.0 | 2.0 | 0.00 | 0.00 | 0.00 | 17 | 1015.2 |
| 20260831151131 | 92 | 14 | 0.0 | 2.0 | 0.00 | 0.00 | 0.00 | 17 | 1015.3 |
| 20260831150626 | 91 | 68 | 1.0 | 2.0 | 0.00 | 0.00 | 0.00 | 18 | 1015.5 |
| 20260831150121 | 91 | 221 | 0.0 | 2.0 | 0.00 | 0.00 | 0.00 | 18 | 1015.2 |
| 20260831145615 | 89 | 116 | 1.0 | 2.0 | 0.00 | 0.00 | 0.00 | 19 | 1015.3 |
| 20260831145112 | 89 | 185 | 0.0 | 2.0 | 0.00 | 0.00 | 0.00 | 19 | 1015.4 |
| 20260831144608 | 88 | 216 | 0.0 | 2.0 | 0.00 | 0.00 | 0.00 | 20 | 1015.2 |
| 20260831144103 | 87 | 256 | 1.0 | 2.0 | 0.00 | 0.00 | 0.00 | 20 | 1015.1 |
| 20260831143602 | 86 | 256 | 2.0 | 2.0 | 0.00 | 0.00 | 0.00 | 21 | 1015.3 |
| 20260831143058 | 85 | 358 | 1.0 | 1.0 | 0.00 | 0.00 | 0.00 | 22 | 1015.0 |
| 20260831142554 | 84 | 89 | 0.0 | 2.0 | 0.00 | 0.00 | 0.00 | 22 | 1015.0 |
| 20260831142050 | 82 | 269 | 0.0 | 2.0 | 0.00 | 0.00 | 0.00 | 23 | 1014.7 |
| 20260831141548 | 81 | 92 | 1.0 | 2.0 | 0.00 | 0.00 | 0.00 | 24 | 1014.9 |
| 20260831141044 | 80 | 323 | 2.0 | 2.0 | 0.00 | 0.00 | 0.00 | 24 | 1014.7 |
| 20260831140543 | 79 | 282 | 1.0 | 2.0 | 0.00 | 0.00 | 0.00 | 24 | 1014.8 |
| 20260831140037 | 79 | 298 | 0.0 | 1.0 | 0.00 | 0.00 | 0.00 | 24 | 1014.7 |
| 20260831135535 | 78 | 259 | 0.0 | 2.0 | 0.00 | 0.00 | 0.00 | 24 | 1014.6 |
| 20260831135030 | 79 | 230 | 1.0 | 2.0 | 0.00 | 0.00 | 0.00 | 24 | 1014.4 |
| 20260831134526 | 79 | 301 | 0.0 | 1.0 | 0.00 | 0.00 | 0.00 | 25 | 1014.4 |
| 20260831134021 | 78 | 278 | 0.0 | 1.0 | 0.00 | 0.00 | 0.00 | 24 | 1014.1 |
| 20260831133516 | 77 | 245 | 0.0 | 2.0 | 0.00 | 0.00 | 0.00 | 25 | 1014.3 |
| 20260831133011 | 77 | 319 | 1.0 | 2.0 | 0.00 | 0.00 | 0.00 | 24 | 1014.3 |
| 20260831132507 | 77 | 102 | 0.0 | 2.0 | 0.00 | 0.00 | 0.00 | 25 | 1014.2 |
| 20260831132005 | 78 | 151 | 1.0 | 3.0 | 0.00 | 0.00 | 0.00 | 24 | 1014.2 |
| 20260831131500 | 77 | 179 | 2.0 | 3.0 | 0.00 | 0.00 | 0.00 | 24 | 1014.1 |
| 20260831130956 | 77 | 209 | 2.0 | 3.0 | 0.00 | 0.00 | 0.00 | 25 | 1014.2 |
| 20260831130451 | 78 | 96 | 0.0 | 2.0 | 0.00 | 0.00 | 0.00 | 25 | 1014.1 |
| 20260831125950 | 78 | 253 | 0.0 | 2.0 | 0.00 | 0.00 | 0.00 | 24 | 1014.2 |
| 20260831125445 | 78 | 170 | 1.0 | 2.0 | 0.00 | 0.00 | 0.00 | 25 | 1014.1 |
| 20260831124941 | 77 | 200 | 1.0 | 2.0 | 0.00 | 0.00 | 0.00 | 25 | 1014.1 |
| 20260831124437 | 78 | 205 | 1.0 | 2.0 | 0.00 | 0.00 | 0.00 | 25 | 1014.0 |
| 20260831123933 | 78 | 168 | 0.0 | 2.0 | 0.00 | 0.00 | 0.00 | 25 | 1013.9 |
| 20260831123431 | 78 | 251 | 2.0 | 3.0 | 0.00 | 0.00 | 0.00 | 25 | 1014.0 |
| 20260831122926 | 80 | 237 | 0.0 | 2.0 | 0.00 | 0.00 | 0.00 | 24 | 1013.8 |
| 20260831122421 | 80 | 172 | 1.0 | 1.0 | 0.00 | 0.00 | 0.00 | 24 | 1013.9 |
| 20260831121916 | 79 | 170 | 1.0 | 2.0 | 0.00 | 0.00 | 0.00 | 25 | 1013.7 |
| 20260831121412 | 79 | 233 | 0.0 | 2.0 | 0.00 | 0.00 | 0.00 | 25 | 1013.7 |
| 20260831120908 | 79 | 181 | 2.0 | 4.0 | 0.00 | 0.00 | 0.00 | 24 | 1014.0 |
| 20260831120402 | 77 | 211 | 1.0 | 3.0 | 0.00 | 0.00 | 0.00 | 25 | 1013.6 |
| 20260831115856 | 78 | 165 | 0.0 | 2.0 | 0.00 | 0.00 | 0.00 | 25 | 1013.7 |
| 20260831115353 | 79 | 195 | 2.0 | 3.0 | 0.00 | 0.00 | 0.00 | 25 | 1013.7 |
| 20260831114852 | 79 | 257 | 1.0 | 2.0 | 0.00 | 0.00 | 0.00 | 25 | 1013.8 |
| 20260831114351 | 81 | 211 | 4.0 | 4.0 | 0.00 | 0.00 | 0.00 | 24 | 1013.9 |
| 20260831113848 | 81 | 119 | 0.0 | 2.0 | 0.00 | 0.00 | 0.00 | 24 | 1013.7 |
| 20260831113347 | 81 | 149 | 2.0 | 2.0 | 0.00 | 0.00 | 0.00 | 24 | 1013.6 |
| 20260831112841 | 80 | 228 | 1.0 | 2.0 | 0.00 | 0.00 | 0.00 | 25 | 1013.7 |
| 20260831112336 | 80 | 217 | 0.0 | 2.0 | 0.00 | 0.00 | 0.00 | 25 | 1013.7 |
| 20260831111831 | 80 | 49 | 0.0 | 2.0 | 0.00 | 0.00 | 0.00 | 25 | 1013.7 |
| 20260831111323 | 81 | 249 | 0.0 | 1.0 | 0.00 | 0.00 | 0.00 | 25 | 1013.7 |
| 20260831110818 | 82 | 135 | 1.0 | 2.0 | 0.00 | 0.00 | 0.00 | 24 | 1013.7 |
| 20260831110318 | 82 | 130 | 0.0 | 2.0 | 0.00 | 0.00 | 0.00 | 24 | 1013.7 |
| 20260831105811 | 82 | 309 | 0.0 | 1.0 | 0.00 | 0.00 | 0.00 | 24 | 1013.7 |
| 20260831105307 | 83 | 122 | 0.0 | 2.0 | 0.00 | 0.00 | 0.00 | 23 | 1013.7 |
| 20260831104807 | 82 | 179 | 1.0 | 2.0 | 0.00 | 0.00 | 0.00 | 24 | 1013.6 |
| 20260831104303 | 84 | 78 | 0.0 | 2.0 | 0.00 | 0.00 | 0.00 | 24 | 1013.5 |
| 20260831103758 | 82 | 102 | 2.0 | 3.0 | 0.00 | 0.00 | 0.00 | 24 | 1013.5 |
| 20260831103254 | 82 | 195 | 0.0 | 1.0 | 0.00 | 0.00 | 0.00 | 25 | 1013.7 |
| 20260831102753 | 83 | 70 | 1.0 | 2.0 | 0.00 | 0.00 | 0.00 | 24 | 1013.4 |
| 20260831102248 | 83 | 207 | 0.0 | 2.0 | 0.00 | 0.00 | 0.00 | 24 | 1013.2 |
| 20260831101744 | 84 | 88 | 1.0 | 3.0 | 0.00 | 0.00 | 0.00 | 24 | 1013.5 |
| 20260831101239 | 85 | 191 | 0.0 | 2.0 | 0.00 | 0.00 | 0.00 | 22 | 1013.3 |
| 20260831100735 | 84 | 169 | 1.0 | 3.0 | 0.00 | 0.00 | 0.00 | 21 | 1013.4 |
| 20260831100231 | 83 | 50 | 0.0 | 2.0 | 0.00 | 0.00 | 0.00 | 23 | 1013.4 |
| 20260831095729 | 83 | 205 | 0.0 | 2.0 | 0.00 | 0.00 | 0.00 | 24 | 1013.6 |
| 20260831095225 | 84 | 88 | 0.0 | 1.0 | 0.00 | 0.00 | 0.00 | 23 | 1013.3 |
| 20260831094725 | 84 | 168 | 2.0 | 3.0 | 0.00 | 0.00 | 0.00 | 24 | 1013.5 |
| 20260831094221 | 84 | 210 | 1.0 | 2.0 | 0.00 | 0.00 | 0.00 | 24 | 1013.5 |
| 20260831093717 | 86 | 342 | 1.0 | 4.0 | 0.00 | 0.00 | 0.00 | 21 | 1013.5 |
| 20260831093212 | 86 | 177 | 1.0 | 2.0 | 0.00 | 0.00 | 0.00 | 22 | 1013.5 |
| 20260831092708 | 86 | 106 | 0.0 | 2.0 | 0.00 | 0.00 | 0.00 | 20 | 1013.3 |
| 20260831092203 | 88 | 99 | 1.0 | 2.0 | 0.00 | 0.00 | 0.00 | 21 | 1013.2 |
| 20260831091703 | 86 | 185 | 0.0 | 1.0 | 0.00 | 0.00 | 0.00 | 23 | 1013.3 |
| 20260831091159 | 83 | 355 | 2.0 | 2.0 | 0.00 | 0.00 | 0.00 | 24 | 1013.4 |
| 20260831090659 | 85 | 289 | 1.0 | 2.0 | 0.00 | 0.00 | 0.00 | 23 | 1013.3 |
| 20260831090155 | 86 | 76 | 2.0 | 2.0 | 0.00 | 0.00 | 0.00 | 22 | 1013.3 |
| 20260831085651 | 86 | 64 | 2.0 | 2.0 | 0.00 | 0.00 | 0.00 | 22 | 1013.5 |
| 20260831085147 | 87 | 147 | 0.0 | 2.0 | 0.00 | 0.00 | 0.00 | 21 | 1013.6 |
| 20260831084642 | 87 | 266 | 0.0 | 2.0 | 0.00 | 0.00 | 0.00 | 23 | 1013.6 |
| 20260831084138 | 86 | 154 | 2.0 | 2.0 | 0.00 | 0.00 | 0.00 | 22 | 1013.5 |
| 20260831083634 | 85 | 63 | 0.0 | 2.0 | 0.00 | 0.00 | 0.00 | 24 | 1013.4 |
| 20260831083129 | 85 | 80 | 2.0 | 3.0 | 0.00 | 0.00 | 0.00 | 24 | 1013.4 |
| 20260831082627 | 85 | 299 | 0.0 | 3.0 | 0.00 | 0.00 | 0.00 | 24 | 1013.6 |
| 20260831082123 | 84 | 79 | 1.0 | 2.0 | 0.00 | 0.00 | 0.00 | 24 | 1013.5 |
| 20260831081618 | 85 | 63 | 0.0 | 2.0 | 0.00 | 0.00 | 0.00 | 24 | 1013.8 |
| 20260831081114 | 84 | 68 | 0.0 | 1.0 | 0.00 | 0.00 | 0.00 | 25 | 1013.5 |
| 20260831080609 | 84 | 269 | 0.0 | 1.0 | 0.00 | 0.00 | 0.00 | 26 | 1013.7 |
| 20260831080104 | 85 | 48 | 1.0 | 2.0 | 0.00 | 0.00 | 0.00 | 26 | 1013.6 |
| 20260831075600 | 86 | 63 | 2.0 | 2.0 | 0.00 | 0.00 | 0.00 | 25 | 1013.7 |
| 20260831075055 | 87 | 55 | 2.0 | 3.0 | 0.00 | 0.00 | 0.00 | 24 | 1013.8 |
| 20260831074554 | 87 | 100 | 0.0 | 1.0 | 0.00 | 0.00 | 0.00 | 24 | 1013.6 |
| 20260831074049 | 87 | 222 | 0.0 | 2.0 | 0.00 | 0.00 | 0.00 | 24 | 1013.7 |
| 20260831073544 | 87 | 255 | 1.0 | 3.0 | 0.00 | 0.00 | 0.00 | 23 | 1013.5 |
| 20260831073043 | 87 | 170 | 2.0 | 3.0 | 0.00 | 0.00 | 0.00 | 23 | 1013.6 |
| 20260831072539 | 87 | 237 | 1.0 | 1.0 | 0.00 | 0.00 | 0.00 | 23 | 1013.6 |
| 20260831072035 | 87 | 89 | 0.0 | 1.0 | 0.00 | 0.00 | 0.00 | 24 | 1013.7 |
| 20260831071534 | 87 | 223 | 0.0 | 1.0 | 0.00 | 0.00 | 0.00 | 23 | 1013.4 |
| 20260831071029 | 88 | 239 | 2.0 | 4.0 | 0.00 | 0.00 | 0.00 | 23 | 1013.5 |
| 20260831070528 | 88 | 251 | 1.0 | 3.0 | 0.00 | 0.00 | 0.00 | 23 | 1013.4 |
| 20260831070023 | 88 | 247 | 0.0 | 2.0 | 0.00 | 0.00 | 0.00 | 23 | 1013.6 |
| 20260831065521 | 89 | 59 | 1.0 | 2.0 | 0.00 | 0.00 | 0.00 | 23 | 1013.3 |
| 20260831065016 | 89 | 191 | 0.0 | 2.0 | 0.00 | 0.00 | 0.00 | 23 | 1013.4 |
| 20260831064511 | 90 | 284 | 0.0 | 2.0 | 0.00 | 0.00 | 0.00 | 23 | 1013.4 |
| 20260831064006 | 91 | 92 | 2.0 | 2.0 | 0.00 | 0.00 | 0.00 | 22 | 1013.3 |
| 20260831063501 | 92 | 332 | 2.0 | 3.0 | 0.00 | 0.00 | 0.00 | 21 | 1013.4 |
| 20260831062955 | 93 | 285 | 3.0 | 10.0 | 0.00 | 0.00 | 0.00 | 20 | 1013.4 |
| 20260831062451 | 92 | 260 | 7.0 | 9.0 | 0.00 | 0.00 | 0.00 | 20 | 1013.3 |
| 20260831061950 | 92 | 253 | 5.0 | 10.0 | 0.00 | 0.00 | 0.00 | 20 | 1013.2 |
| 20260831061448 | 92 | 268 | 5.0 | 10.0 | 0.00 | 0.00 | 0.00 | 20 | 1013.2 |
| 20260831060945 | 93 | 238 | 7.0 | 13.0 | 0.00 | 0.00 | 0.00 | 20 | 1013.2 |
| 20260831060439 | 92 | 272 | 5.0 | 13.0 | 0.00 | 0.00 | 0.00 | 20 | 1013.1 |
| 20260831055938 | 92 | 287 | 6.0 | 15.0 | 0.00 | 0.00 | 0.00 | 20 | 1013.1 |
| 20260831055433 | 92 | 285 | 6.0 | 11.0 | 0.00 | 0.00 | 0.00 | 20 | 1013.1 |
| 20260831054929 | 93 | 287 | 11.0 | 19.0 | 0.00 | 0.00 | 0.00 | 20 | 1013.1 |
| 20260831054424 | 93 | 268 | 12.0 | 15.0 | 0.00 | 0.00 | 0.00 | 20 | 1013.4 |
| 20260831053923 | 93 | 293 | 7.0 | 11.0 | 0.00 | 0.00 | 0.00 | 20 | 1013.2 |
| 20260831053421 | 93 | 288 | 8.0 | 15.0 | 0.00 | 0.00 | 0.00 | 20 | 1013.3 |
| 20260831052916 | 93 | 300 | 9.0 | 17.0 | 0.00 | 0.00 | 0.00 | 20 | 1013.1 |